User: anonymous   Login
Location: Bangkok
(13.7500°N, 100.5170°E)
Time: 20:12:20
(UTC+07:00)
Language:

Cosmos 1898 Rocket - Orbit

View from above orbital plane
View from above orbital plane
View from above satellite
View from above satellite

Ground track
Ground track

The orbit data is extracted from the following two-line orbital elements,

1 18586U 87098B   15031.77753903  .00000191  00000-0  73922-4 0  2329
2 18586 074.0065 092.3636 0021567 350.4577 149.0521 14.36555820422798
Epoch (UTC): 31 January 2015 18:39:39
Eccentricity: 0.0021567
inclination: 74.0065°
perigee height: 754 km
apogee height: 785 km
right ascension of ascending node: 92.3636°
argument of perigee: 350.4577°
revolutions per day: 14.36555820
mean anomaly at epoch: 149.0521°
orbit number at epoch: 42279

The dashed part of the orbit path shows where the satellite is in the earth's shadow,  

DLR